[[{"header":{"parameterUnit":"m.s-1","parameterCategory":1,"la1":30.2991,"la2":30.254,"lo1":-89.0895,"lo2":-89.0444,"dy":0.0017,"dx":0.0017,"nx":28,"ny":28,"refTime":"2024-07-16T03:00:00:Z","depth":0,"parameterNumber":2,"parameterNumberName":"U-component_of_WINDS"},"data":[0,0,0,0,0,0,0,0,0,0,0,0,0,0,0,0,0,0,0,0,0,0,0,0,0,0,0,0,0,0,0,0,0,0,0,0,0,0,0,0,0,0,0,0,0,0,0,0,0,0,0,0,0,0,0,0,0,0,1.9368,1.9369,0,1.9451,1.9451,1.9452,1.9437,1.9435,1.9434,1.9432,1.9517,1.952,1.9524,0,0,0,0,0,0,0,0,0,0,0,0,0,1.9195,1.9198,1.9368,1.9369,1.937,1.945,1.9452,1.9453,1.9437,1.9435,1.9433,1.9432,1.9515,1.952,1.9524,0,0,0,0,0,0,0,0,0,0,0,0,0,1.9273,1.9199,1.9368,1.9372,1.9373,1.945,1.9452,1.9453,1.9437,1.9435,1.9433,1.9431,1.9514,1.9519,1.9525,1.9603,0,0,1.9541,1.9544,0,0,0,0,0,0,0,0,1.9268,1.9279,1.937,1.9372,1.9373,1.9431,1.9421,1.9503,1.9438,1.9413,1.9432,1.943,1.949,1.9497,1.9518,1.9607,1.961,1.9542,1.9545,1.9547,1.9549,0,0,0,0,0,0,0,1.9263,1.9276,1.9401,1.9372,1.9373,1.9369,1.9378,1.9437,1.9463,1.9415,1.9414,1.9424,1.949,1.9512,1.9519,1.9612,1.9542,1.9546,1.955,1.9552,1.9767,1.9769,0,0,0,0,0,0,1.9256,1.9271,1.9398,1.9403,1.9314,1.9374,1.9383,1.9415,1.9462,1.9467,1.9426,1.9423,1.9504,1.9513,1.9522,1.9615,1.9547,1.9553,1.9556,1.9764,1.9767,1.977,0,0,0,0,0,0,1.9253,1.9268,1.9395,1.9337,1.9353,1.9379,1.9414,1.9417,1.944,1.947,1.9475,1.9444,1.9503,1.9515,1.9582,1.9618,1.9555,1.956,1.9761,1.9765,1.9768,1.9803,0,0,0,0,0,0,1.9248,1.9267,1.9297,1.9338,1.9356,1.9454,1.9417,1.9421,1.9449,1.9446,1.9488,1.9493,1.9502,1.9574,1.9588,1.9624,1.9564,1.9758,1.9763,1.9767,1.9798,1.9807,1.9814,0,0,0,0,0,1.9242,1.9304,1.9299,1.9314,1.9395,1.9456,1.9466,1.9475,1.9452,1.9482,1.9502,1.9492,1.9612,1.9581,1.9596,1.9635,1.9756,1.9762,1.9767,1.9795,1.9805,1.9814,0,0,0,0,0,0,1.9268,1.931,1.9304,1.9382,1.9415,1.9453,1.9492,1.9486,1.9527,1.9523,1.9532,1.9542,1.961,1.9629,1.9595,1.9712,1.9681,1.9689,1.9697,1.9707,1.9715,1.9708,1.9569,0,0,0,0,0,1.9282,1.9329,1.9363,1.9428,1.9445,1.9466,1.9493,1.9497,1.9532,1.9546,1.957,1.9605,1.965,1.968,1.9723,1.9801,1.9809,1.9835,1.9843,1.9849,1.9857,1.9897,1.9908,1.9788,1.9788,1.9787,0,0,1.9313,1.9342,1.9371,1.9434,1.9461,1.9508,1.9478,1.953,1.9565,1.9554,1.9619,1.9638,1.9677,1.9749,1.9782,1.9767,1.9892,1.9856,1.9861,1.9865,1.9904,1.9915,1.9925,1.9791,1.9791,1.979,0,0,1.9394,1.9421,1.9477,1.9503,1.9544,1.9557,1.957,1.9608,1.962,1.9686,1.9678,1.9719,1.9798,1.9825,1.9849,1.9937,1.9929,1.9951,1.9992,2.0032,2.0041,2.005,2.0079,2.009,1.9958,1.9958,1.9958,0,1.9427,1.9498,1.9506,1.9558,1.9585,1.9577,1.9633,1.9659,1.9711,1.973,1.9712,1.9809,1.9835,1.9912,1.9933,1.9954,1.9968,1.9946,2.0039,2.0048,2.0056,2.0084,2.0095,1.9961,1.996,1.996,1.996,0,1.9536,1.9586,1.9626,1.9676,1.9708,1.9761,1.9777,1.9808,1.9808,1.9822,1.9888,1.9918,1.9966,1.9985,1.9987,2.0063,2.0052,2.0037,2.0005,2.0069,2.0096,2.0107,1.9964,1.9963,1.9962,1.9962,0,0,1.9636,1.9688,1.9703,1.9724,1.9767,1.9805,1.9858,1.9905,1.993,1.9966,2.001,2.0075,2.0061,2.0088,2.0092,2.0127,2.0192,2.0107,2.0108,2.0121,2.0276,2.0286,2.0298,2.0187,2.0189,2.0191,2.0272,0,1.9719,1.9812,1.9819,1.9903,1.9947,1.9939,1.9985,2.0015,2.003,2.0069,2.0085,2.013,2.0109,2.0125,2.0159,2.0177,2.0223,2.0172,2.0226,2.0228,2.0216,2.0313,2.0324,2.0399,2.0282,2.0284,2.0286,0,1.9828,1.9866,1.9954,1.9988,2.0007,2.0048,2.009,2.0129,2.0163,2.017,2.02,2.0199,2.0252,2.0219,2.0291,2.0255,2.0278,2.029,2.0293,2.0298,2.026,2.0318,2.0423,2.0434,2.0302,2.0301,2.03,0,1.989,1.9963,2.0025,2.0043,2.0086,2.0114,2.0133,2.0165,2.0192,2.0229,2.0246,2.0289,2.0312,2.0345,2.0355,2.033,2.0426,2.0394,2.0433,2.0433,2.0453,2.0451,2.0561,2.047,2.047,2.0469,2.0469,0,1.9981,2.0035,2.0052,2.009,2.0149,2.0157,2.0215,2.0232,2.026,2.03,2.0296,2.0333,2.0345,2.0384,2.0392,2.0449,2.046,2.0467,2.0469,2.0467,2.0466,2.0482,2.0476,2.0472,2.0472,2.0471,2.0471,0,2.006,2.0075,2.014,2.0174,2.0184,2.0226,2.0254,2.029,2.0303,2.0353,2.0365,2.0386,2.0432,2.0445,2.05,2.0506,2.0572,2.057,2.0561,2.056,2.0598,2.0594,2.0721,2.0737,2.0636,2.0637,2.0638,0,2.0117,2.0158,2.0195,2.0221,2.0241,2.0284,2.0311,2.032,2.0348,2.0388,2.0418,2.0463,2.05,2.0573,2.0592,2.0634,2.0632,2.0673,2.0638,2.0634,2.063,2.0627,2.063,2.068,2.0681,2.0682,2.0682,0,2.0215,2.022,2.0259,2.03,2.0332,2.0366,2.0397,2.0419,2.0432,2.0464,2.051,2.0538,2.0593,2.0637,2.0679,2.0698,2.0692,2.0693,2.0704,2.0702,2.0695,2.0698,2.0577,2.069,2.0689,2.0689,2.0688,2.0688,2.0284,2.0319,2.035,2.0393,2.0418,2.0447,2.0481,2.0498,2.0537,2.0582,2.0585,2.0635,2.0665,2.0721,2.0741,2.078,2.0768,2.0784,2.0788,2.0791,2.0793,2.0689,2.0788,2.0788,2.0787,2.0787,2.0787,0,2.0381,2.04,2.044,2.0483,2.0517,2.0508,2.0542,2.057,2.0614,2.0643,2.0679,2.0731,2.0773,2.0795,2.0837,2.0863,2.0861,2.0874,2.0871,2.0875,2.0803,2.0789,2.0874,2.0874,2.0874,2.0874,2.0874,2.0874,2.0435,2.0493,2.0501,2.057,2.0589,2.0637,2.0657,2.0683,2.0706,2.0764,2.0799,2.0813,2.0839,2.0882,2.092,2.0926,2.0941,2.0954,2.0958,2.089,2.0881,2.0872,2.0859,2.0958,2.0958,2.1027,2.1028,2.1028]},{"header":{"parameterUnit":"m.s-1","parameterCategory":1,"la1":30.2991,"la2":30.254,"lo1":-89.0895,"lo2":-89.0444,"dy":0.0017,"dx":0.0017,"nx":28,"ny":28,"refTime":"2024-07-16T03:00:00:Z","depth":0,"parameterNumber":3,"parameterNumberName":"V-component_of_WINDS"},"data":[0,0,0,0,0,0,0,0,0,0,0,0,0,0,0,0,0,0,0,0,0,0,0,0,0,0,0,0,0,0,0,0,0,0,0,0,0,0,0,0,0,0,0,0,0,0,0,0,0,0,0,0,0,0,0,0,0,0,4.3529,4.3529,0,4.357,4.357,4.3571,4.3514,4.3512,4.3509,4.3508,4.3545,4.3548,4.3551,0,0,0,0,0,0,0,0,0,0,0,0,0,4.3395,4.3397,4.3529,4.3529,4.353,4.357,4.357,4.3571,4.3514,4.3511,4.3509,4.3507,4.3544,4.3547,4.3551,0,0,0,0,0,0,0,0,0,0,0,0,0,4.3446,4.3398,4.3529,4.3506,4.3505,4.357,4.357,4.3571,4.3514,4.3511,4.3508,4.3505,4.3543,4.3547,4.3551,4.3639,0,0,4.3565,4.3566,0,0,0,0,0,0,0,0,4.3443,4.3451,4.3509,4.3508,4.3506,4.3534,4.3537,4.3594,4.3515,4.3511,4.3508,4.3504,4.3543,4.3547,4.3562,4.3641,4.3642,4.3565,4.3568,4.3569,4.3571,0,0,0,0,0,0,0,4.344,4.3449,4.3545,4.351,4.3508,4.3492,4.3496,4.3547,4.3543,4.3511,4.3507,4.3513,4.3542,4.3558,4.3562,4.3643,4.3565,4.3569,4.3571,4.3573,4.3793,4.3796,0,0,0,0,0,0,4.3439,4.3446,4.3544,4.3546,4.3467,4.3497,4.3501,4.3528,4.3543,4.3542,4.3515,4.351,4.3552,4.3557,4.3563,4.3665,4.3569,4.3573,4.3576,4.3789,4.3793,4.3797,0,0,0,0,0,0,4.3437,4.3449,4.3542,4.3495,4.3506,4.3503,4.3533,4.353,4.3546,4.3546,4.3544,4.3532,4.355,4.3557,4.362,4.3665,4.3575,4.3579,4.3786,4.3791,4.3795,4.387,0,0,0,0,0,0,4.3433,4.3448,4.3483,4.3496,4.3509,4.36,4.3536,4.3533,4.3554,4.3547,4.3562,4.3561,4.3548,4.3614,4.3624,4.3669,4.3583,4.3781,4.3788,4.3794,4.3863,4.3876,4.3888,0,0,0,0,0,4.3429,4.3502,4.3485,4.3497,4.3552,4.3603,4.361,4.3594,4.3558,4.3592,4.3591,4.3561,4.3659,4.3621,4.3632,4.3679,4.3779,4.3786,4.3793,4.3857,4.3874,4.3888,0,0,0,0,0,0,4.3492,4.3503,4.3485,4.3565,4.3584,4.3593,4.3635,4.3612,4.364,4.3633,4.3611,4.3615,4.3682,4.3687,4.3644,4.3763,4.3712,4.3722,4.3757,4.3773,4.3785,4.3782,4.3586,0,0,0,0,0,4.3516,4.3558,4.3565,4.3634,4.3645,4.3639,4.366,4.3647,4.3665,4.3672,4.3676,4.3693,4.3728,4.3751,4.3783,4.3864,4.3865,4.3902,4.3914,4.3924,4.3932,4.3973,4.3989,4.3821,4.3821,4.3821,0,0,4.3564,4.3576,4.3603,4.3647,4.366,4.3702,4.3646,4.3693,4.3723,4.3678,4.3738,4.3742,4.3759,4.3832,4.3863,4.3838,4.3979,4.3933,4.3942,4.3944,4.3982,4.3998,4.4012,4.3826,4.3825,4.3824,0,0,4.3674,4.3688,4.3747,4.3761,4.3782,4.3777,4.3791,4.3804,4.3805,4.3865,4.3832,4.3867,4.3927,4.3941,4.3955,4.4069,4.404,4.408,4.4144,4.4184,4.4197,4.4209,4.4247,4.4261,4.4088,4.4088,4.4089,0,4.3731,4.3795,4.3779,4.3829,4.3848,4.3811,4.3868,4.3882,4.3912,4.3925,4.3897,4.3971,4.398,4.4053,4.4081,4.4095,4.4108,4.4077,4.4197,4.4208,4.4219,4.4255,4.427,4.4093,4.4092,4.4092,4.4091,0,4.3863,4.3908,4.3952,4.3983,4.4007,4.4061,4.4051,4.4077,4.4061,4.4059,4.4119,4.4129,4.4161,4.4178,4.4162,4.4248,4.4232,4.4201,4.4148,4.424,4.4273,4.4287,4.4099,4.4098,4.4096,4.4095,0,0,4.4014,4.4035,4.4051,4.4063,4.4083,4.4116,4.4167,4.42,4.4221,4.4243,4.4283,4.4335,4.4306,4.4322,4.4308,4.4344,4.443,4.4308,4.4307,4.4328,4.4523,4.4545,4.4562,4.4412,4.4415,4.4417,4.4521,0,4.4121,4.4211,4.4197,4.4282,4.4321,4.4286,4.433,4.4346,4.4345,4.4376,4.4374,4.4411,4.4371,4.438,4.4414,4.4413,4.4469,4.4405,4.4447,4.4449,4.4442,4.4579,4.4603,4.4701,4.4534,4.4536,4.4538,0,4.4259,4.4287,4.4376,4.4388,4.4404,4.4444,4.4471,4.4503,4.4519,4.4516,4.4534,4.4513,4.4561,4.451,4.4575,4.4532,4.4548,4.455,4.4553,4.4555,4.4498,4.4583,4.4731,4.4745,4.4559,4.4557,4.4556,0,4.4357,4.4416,4.4477,4.4489,4.4505,4.4533,4.4541,4.4554,4.4574,4.4598,4.461,4.464,4.4655,4.4677,4.4664,4.4628,4.473,4.4678,4.4726,4.4727,4.4748,4.4746,4.4899,4.4762,4.4762,4.4762,4.4761,0,4.4478,4.4533,4.4521,4.4558,4.4618,4.4601,4.4661,4.4664,4.4676,4.4711,4.4683,4.4716,4.4697,4.4729,4.4718,4.4772,4.478,4.4777,4.4773,4.4778,4.4778,4.4787,4.4779,4.4766,4.4765,4.4764,4.4763,0,4.4597,4.4591,4.4654,4.4665,4.4668,4.4712,4.4719,4.4753,4.475,4.4795,4.4804,4.4798,4.4834,4.4823,4.4861,4.4854,4.4922,4.4911,4.4917,4.4913,4.4961,4.4956,4.5124,4.5144,4.4996,4.4997,4.4998,0,4.4674,4.4715,4.473,4.4752,4.4762,4.4799,4.4819,4.4804,4.4825,4.4846,4.4877,4.491,4.4936,4.4993,4.4992,4.502,4.5008,4.5065,4.5012,4.5015,4.5006,4.5003,4.5006,4.5074,4.5076,4.5078,4.5079,0,4.4809,4.4804,4.4835,4.4865,4.4891,4.4913,4.4933,4.4952,4.4938,4.4964,4.5,4.502,4.5059,4.5091,4.5117,4.5123,4.5098,4.5096,4.5108,4.5113,4.5114,4.5112,4.4943,4.5091,4.509,4.5089,4.5088,4.5088,4.4908,4.4942,4.4958,4.4993,4.5006,4.5025,4.5057,4.5058,4.5088,4.5119,4.5108,4.5149,4.5162,4.5194,4.5204,4.5234,4.5212,4.5231,4.5235,4.5239,4.5244,4.5111,4.5239,4.5239,4.5239,4.5238,4.5238,0,4.504,4.5048,4.5081,4.5109,4.5136,4.5112,4.5132,4.5156,4.5193,4.5208,4.5234,4.5275,4.5306,4.5307,4.5335,4.536,4.5349,4.5368,4.5364,4.5366,4.5264,4.5249,4.5376,4.5376,4.5376,4.5376,4.5376,4.5376,4.5112,4.5168,4.5165,4.5227,4.5234,4.5275,4.5289,4.5305,4.5317,4.5364,4.539,4.5391,4.54,4.5429,4.5455,4.5455,4.5465,4.5488,4.5483,4.5387,4.5373,4.536,4.5346,4.5491,4.5491,4.5582,4.5583,4.5584]}]]